Andrews, TX

3:22 AM CDT on August 26, 2019 (GMT -0500)
Andrews

Weather History for KE11 - July, 2019

Change the Weather History Date:

Tuesday, July 16, 2019

  Actual Average (WUND) Record (WUND)
Temperature  
Mean Temperature 88 °F -  
Max Temperature 99 °F - - (-1)
Min Temperature 76 °F - - (-1)
Cooling Degree Days 22    
Growing Degree Days 38 (Base 50)    
Moisture  
Dew Point 58 °F    
Average Humidity 40    
Maximum Humidity 61    
Minimum Humidity 20    
Precipitation  
Precipitation 0.00 in - - ()
Sea Level Pressure  
Sea Level Pressure 30.02 in    
Wind  
Wind Speed 8 mph (South)    
Max Wind Speed 17 mph    
Max Gust Speed 23 mph    
Visibility 10 miles    
Events      
Averages and records for this station are not official NWS values.
T = Trace of Precipitation, MM = Missing Value Source: NWS Daily Summary

Daily Weather History Graph

Daily Weather History Graph

Search for Another Location

Airport or City:

Astronomy

Jul. 16, 2019 Rise Set
Actual Time 6:54 AM CDT 8:57 PM CDT
Civil Twilight 6:26 AM CDT 9:25 PM CDT
Nautical Twilight 5:53 AM CDT 9:58 PM CDT
Astronomical Twilight 5:16 AM CDT 10:34 PM CDT
Moon 9:04 PM CDT (7/16) 6:35 AM CDT (7/16)
Length of Visible Light 14h 58m
Length of Day
14h 03m
Full, 100% of the Moon is Illuminated
Jul 16
Full
Jul 16
Full
Jul 24
Last Quarter
Jul 31
New
Aug 7
First Quarter

Hourly Weather History & Observations

Time (CDT) Temp. Heat Index Dew Point Humidity Pressure Visibility Wind Dir Wind Speed Gust Speed Precip Events Conditions
12:15 AM 81.9 °F 81.7 °F 57.2 °F 43% 30.02 in 10.0 mi SSE 6.9 mph - N/A   Clear
12:35 AM 81.0 °F 81.2 °F 58.3 °F 46% 30.02 in 10.0 mi SSE 6.9 mph - N/A   Clear
12:55 AM 80.2 °F 80.9 °F 59.7 °F 49% 30.02 in 10.0 mi SSE 6.9 mph - N/A   Clear
1:15 AM 79.5 °F - 60.4 °F 52% 30.03 in 10.0 mi South 5.8 mph - N/A   Clear
1:35 AM 79.0 °F - 60.8 °F 54% 30.02 in 10.0 mi SSE 8.1 mph - N/A   Clear
1:55 AM 78.8 °F - 60.6 °F 54% 30.02 in 10.0 mi South 5.8 mph - N/A   Clear
2:35 AM 79.5 °F - 61.0 °F 53% 30.02 in 10.0 mi South 9.2 mph - N/A   Clear
2:55 AM 79.3 °F - 61.3 °F 54% 30.01 in 10.0 mi South 9.2 mph - N/A   Clear
3:15 AM 78.6 °F - 61.3 °F 55% 30.01 in 10.0 mi South 8.1 mph - N/A   Clear
3:35 AM 77.5 °F - 61.3 °F 57% 30.00 in 10.0 mi South 5.8 mph - N/A   Clear
3:55 AM 77.4 °F - 61.7 °F 58% 30.01 in 10.0 mi South 6.9 mph - N/A   Clear
4:15 AM 76.8 °F - 61.7 °F 59% 30.01 in 10.0 mi South 6.9 mph - N/A   Clear
4:35 AM 76.3 °F - 61.9 °F 61% 30.00 in 10.0 mi South 6.9 mph - N/A   Clear
4:55 AM 76.5 °F - 61.9 °F 61% 30.01 in 10.0 mi SSW 6.9 mph - N/A   Clear
5:15 AM 76.3 °F - 61.9 °F 61% 30.01 in 10.0 mi South 6.9 mph - N/A   Clear
5:35 AM 76.6 °F - 61.9 °F 60% 30.01 in 10.0 mi South 5.8 mph - N/A   Clear
5:55 AM 76.6 °F - 61.7 °F 60% 30.01 in 10.0 mi South 5.8 mph - N/A   Scattered Clouds
6:15 AM 77.0 °F - 61.3 °F 58% 30.02 in 10.0 mi South 8.1 mph - N/A   Mostly Cloudy
6:35 AM 77.0 °F - 61.0 °F 58% 30.03 in 10.0 mi South 8.1 mph - N/A   Scattered Clouds
6:55 AM 77.0 °F - 60.8 °F 57% 30.04 in 10.0 mi SW 6.9 mph - N/A   Scattered Clouds
7:15 AM 77.0 °F - 60.8 °F 57% 30.04 in 10.0 mi SSW 6.9 mph - N/A   Scattered Clouds
7:35 AM 77.0 °F - 61.2 °F 58% 30.04 in 10.0 mi SSW 5.8 mph - N/A   Clear
7:55 AM 77.9 °F - 61.7 °F 57% 30.04 in 10.0 mi South 8.1 mph - N/A   Clear
8:15 AM 77.5 °F - 61.7 °F 58% 30.05 in 10.0 mi South 10.4 mph - N/A   Clear
8:35 AM 79.2 °F - 62.1 °F 56% 30.05 in 10.0 mi South 11.5 mph 19.6 mph N/A   Clear
8:55 AM 81.1 °F 82.3 °F 62.6 °F 53% 30.05 in 10.0 mi South 15.0 mph 21.9 mph N/A   Clear
9:15 AM 81.9 °F 82.9 °F 62.6 °F 52% 30.06 in 10.0 mi South 17.3 mph 23.0 mph N/A   Clear
9:35 AM 83.1 °F 84.2 °F 63.1 °F 51% 30.06 in 10.0 mi South 10.4 mph 19.6 mph N/A   Clear
9:55 AM 84.4 °F 85.2 °F 63.0 °F 48% 30.06 in 10.0 mi South 15.0 mph 20.7 mph N/A   Clear
10:15 AM 85.6 °F 86.3 °F 62.8 °F 46% 30.06 in 10.0 mi South 13.8 mph 18.4 mph N/A   Clear
10:35 AM 86.2 °F 86.6 °F 62.1 °F 44% 30.06 in 10.0 mi South 11.5 mph - N/A   Clear
10:55 AM 88.5 °F 88.6 °F 61.5 °F 40% 30.07 in 10.0 mi South 10.4 mph - N/A   Clear
11:15 AM 90.0 °F 89.7 °F 60.4 °F 37% 30.07 in 10.0 mi South 9.2 mph 17.3 mph N/A   Clear
11:35 AM 90.9 °F 90.6 °F 60.8 °F 36% 30.07 in 10.0 mi SSW 11.5 mph 18.4 mph N/A   Clear
11:55 AM 92.1 °F 91.7 °F 60.3 °F 34% 30.07 in 10.0 mi SSW 13.8 mph - N/A   Clear
12:15 PM 92.7 °F 92.1 °F 59.5 °F 33% 30.08 in 10.0 mi SSE 8.1 mph 19.6 mph N/A   Clear
12:35 PM 93.6 °F 93.4 °F 60.1 °F 33% 30.07 in 10.0 mi South 8.1 mph 16.1 mph N/A   Clear
12:55 PM 93.7 °F 93.0 °F 58.5 °F 31% 30.07 in 10.0 mi SSE 3.5 mph 20.7 mph N/A   Clear
1:15 PM 95.4 °F 94.6 °F 58.6 °F 29% 30.07 in 10.0 mi South 9.2 mph 18.4 mph N/A   Clear
1:35 PM 95.2 °F 94.3 °F 58.1 °F 29% 30.06 in 10.0 mi SSE 12.7 mph 18.4 mph N/A   Clear
1:55 PM 95.2 °F 93.9 °F 57.7 °F 28% 30.05 in 10.0 mi South 8.1 mph - N/A   Scattered Clouds
2:15 PM 96.4 °F 94.6 °F 55.4 °F 25% 30.05 in 10.0 mi SSE 5.8 mph 17.3 mph N/A   Scattered Clouds
2:35 PM 96.1 °F 93.5 °F 53.1 °F 23% 30.04 in 10.0 mi ESE 8.1 mph 19.6 mph N/A   Scattered Clouds
2:55 PM 93.9 °F 91.7 °F 54.3 °F 26% 30.03 in 10.0 mi SE 11.5 mph 16.1 mph N/A   Mostly Cloudy
3:15 PM 97.5 °F 95.0 °F 53.1 °F 22% 30.02 in 10.0 mi SSE 12.7 mph - N/A   Mostly Cloudy
3:35 PM 96.8 °F 94.4 °F 53.6 °F 23% 30.02 in 10.0 mi South 10.4 mph 16.1 mph N/A   Scattered Clouds
3:55 PM 99.0 °F - 52.3 °F 21% 30.01 in 10.0 mi SSE 8.1 mph - N/A   Scattered Clouds
4:15 PM 98.4 °F - 51.1 °F 20% 30.01 in 10.0 mi South 6.9 mph 17.3 mph N/A   Clear
4:35 PM 98.1 °F - 51.8 °F 21% 30.00 in 10.0 mi SSE 11.5 mph 21.9 mph N/A   Scattered Clouds
4:55 PM 96.3 °F - 51.4 °F 22% 29.99 in 10.0 mi SE 6.9 mph 17.3 mph N/A   Scattered Clouds
5:15 PM 97.9 °F - 51.6 °F 21% 29.98 in 10.0 mi SE 10.4 mph 17.3 mph N/A   Clear
5:35 PM 97.9 °F - 51.8 °F 21% 29.97 in 10.0 mi South 10.4 mph 17.3 mph N/A   Clear
5:55 PM 97.5 °F - 52.0 °F 21% 29.97 in 10.0 mi South 11.5 mph 19.6 mph N/A   Clear
6:15 PM 97.3 °F - 51.1 °F 21% 29.96 in 10.0 mi SSE 8.1 mph - N/A   Clear
6:35 PM 97.7 °F - 52.0 °F 21% 29.96 in 10.0 mi South 8.1 mph - N/A   Clear
6:55 PM 96.8 °F - 52.0 °F 22% 29.96 in 10.0 mi South 11.5 mph 19.6 mph N/A   Clear
7:15 PM 94.5 °F 92.1 °F 53.2 °F 25% 29.96 in 10.0 mi South 9.2 mph - N/A   Clear
7:35 PM 94.3 °F 92.1 °F 54.3 °F 26% 29.96 in 10.0 mi South 10.4 mph - N/A   Clear
7:55 PM 93.0 °F 90.8 °F 54.5 °F 27% 29.97 in 10.0 mi South 11.5 mph 17.3 mph N/A   Clear
8:15 PM 91.9 °F 89.8 °F 54.1 °F 28% 29.97 in 10.0 mi SSE 8.1 mph - N/A   Clear
8:35 PM 91.0 °F 88.9 °F 54.7 °F 29% 29.97 in 10.0 mi SSE 11.5 mph - N/A   Clear
8:55 PM 89.8 °F 87.9 °F 55.0 °F 31% 29.98 in 10.0 mi SSE 6.9 mph - N/A   Clear
9:15 PM 88.5 °F 86.7 °F 54.9 °F 32% 29.98 in 10.0 mi SSE 6.9 mph - N/A   Clear
9:35 PM 88.0 °F 86.5 °F 56.3 °F 34% 29.99 in 10.0 mi SSE 8.1 mph - N/A   Clear
9:55 PM 87.4 °F 86.3 °F 57.2 °F 36% 30.00 in 10.0 mi SSE 8.1 mph - N/A   Clear
10:15 PM 86.9 °F 85.9 °F 57.4 °F 37% 30.01 in 10.0 mi SSE 9.2 mph - N/A   Clear
10:35 PM 86.4 °F 85.4 °F 57.7 °F 38% 30.02 in 10.0 mi SSE 10.4 mph - N/A   Clear
10:55 PM 85.6 °F 84.8 °F 58.1 °F 39% 30.02 in 10.0 mi SSE 9.2 mph - N/A   Clear
11:15 PM 84.6 °F 84.0 °F 58.5 °F 41% 30.03 in 10.0 mi SSE 6.9 mph - N/A   Clear
11:35 PM 83.3 °F 83.2 °F 59.0 °F 44% 30.03 in 10.0 mi South 6.9 mph - N/A   Clear
11:55 PM 81.9 °F 82.1 °F 59.0 °F 46% 30.03 in 10.0 mi South 8.1 mph - N/A   Clear